Weather History for Lafayette, LA

Change the Weather History Date:

Saturday, October 6, 2012

  Actual Average Record
Temperature  
Mean Temperature 71 °F 73 °F  
Max Temperature 84 °F 84 °F 95 °F (1912)
Min Temperature 57 °F 63 °F 39 °F (1932)
Degree Days  
Heating Degree Days 0 0  
Month to date heating degree days 0 0  
Since 1 July heating degree days 0 1  
Cooling Degree Days 6 9  
Month to date cooling degree days 45 56  
Year to date cooling degree days 2917 2744  
Growing Degree Days 21 (Base 50)    
Moisture  
Dew Point 64 °F    
Average Humidity 79    
Maximum Humidity 100    
Minimum Humidity 58    
Precipitation  
Precipitation 0.00 in 0.15 in 2.25 in (1919)
Month to date precipitation T 0.89  
Year to date precipitation 57.65 46.23  
Snow  
Snow 0.00 in 0.00 in 0.00 in ()
Month to date snowfall 0.0 0.0  
Since 1 July snowfall 0.0 0.0  
Since 1 September snowfall 0.0 0.0  
Snow Depth 0.00 in    
Sea Level Pressure  
Sea Level Pressure 30.02 in    
Wind  
Wind Speed 7 mph (North)    
Max Wind Speed 18 mph    
Max Gust Speed 22 mph    
Visibility 6 miles    
Events Fog    
T = Trace of Precipitation, MM = Missing Value Source: NWS Daily Summary

Daily Weather History Graph

Daily Weather History Graph

Search for Another Location

Airport:

Trip Planner

Search our weather history database for the weather conditions in past years. The results will help you decide how hot, cold, wet, or windy it might be!

Date:

Astronomy

Oct. 06, 2012 Rise Set
Actual Time 7:04 AM CDT 6:46 PM CDT
Civil Twilight 6:40 AM CDT 7:10 PM CDT
Nautical Twilight 6:12 AM CDT 7:38 PM CDT
Astronomical Twilight 5:45 AM CDT 8:06 PM CDT
Moon 11:20 PM CDT (10/6) 12:40 PM CDT (10/6)
Length of Visible Light 12h 29m
Length of Day
11h 42m
Waning Gibbous, 65% of the Moon is Illuminated
Oct 6
Waning Gibbous
Oct 8
Last Quarter
Oct 15
New
Oct 21
First Quarter
Oct 29
Full

Hourly Weather History & Observations

Time (CDT) Temp. Heat Index Dew Point Humidity Pressure Visibility Wind Dir Wind Speed Gust Speed Precip Events Conditions
12:53 AM 69.1 °F - 64.9 °F 87% 30.02 in 10.0 mi Calm Calm - N/A   Clear
1:53 AM 68.0 °F - 66.0 °F 93% 30.02 in 5.0 mi Calm Calm - N/A   Clear
2:53 AM 66.9 °F - 66.0 °F 97% 30.01 in 5.0 mi Calm Calm - N/A   Clear
3:20 AM 66.2 °F - 64.4 °F 94% 30.01 in 1.5 mi Calm Calm - N/A   Clear
3:37 AM 66.2 °F - 64.4 °F 94% 30.01 in 2.0 mi Calm Calm - N/A   Clear
3:45 AM 66.2 °F - 64.4 °F 94% 30.01 in 1.2 mi Calm Calm - N/A   Clear
3:53 AM 66.9 °F - 64.9 °F 93% 30.01 in 0.5 mi Calm Calm - N/A Fog Fog
4:01 AM 66.2 °F - 64.4 °F 94% 30.00 in 0.2 mi Calm Calm - N/A Fog Fog
4:07 AM 66.2 °F - 64.4 °F 94% 30.00 in 1.0 mi Calm Calm - N/A   Clear
4:15 AM 66.2 °F - 64.4 °F 94% 30.00 in 10.0 mi Calm Calm - N/A   Clear
4:53 AM 66.9 °F - 64.9 °F 93% 30.01 in 8.0 mi Calm Calm - N/A   Clear
5:53 AM 66.9 °F - 64.9 °F 93% 30.02 in 4.0 mi Calm Calm - N/A   Clear
6:18 AM 66.2 °F - 64.4 °F 94% 30.02 in 2.0 mi Calm Calm - N/A   Clear
6:45 AM 66.2 °F - 64.4 °F 94% 30.03 in 4.0 mi Calm Calm - N/A   Clear
6:53 AM 66.0 °F - 64.0 °F 93% 30.03 in 4.0 mi Calm Calm - N/A   Clear
7:09 AM 66.2 °F - 64.4 °F 94% 30.03 in 2.5 mi Calm Calm - N/A   Partly Cloudy
7:19 AM 64.4 °F - 64.4 °F 100% 30.03 in 4.0 mi Calm Calm - N/A   Clear
7:40 AM 66.2 °F - 64.4 °F 94% 30.03 in 0.8 mi Calm Calm - N/A   Mist
7:53 AM 66.9 °F - 66.0 °F 97% 30.03 in 1.2 mi Calm Calm - N/A   Mostly Cloudy
8:09 AM 69.8 °F - 66.2 °F 88% 30.04 in 2.5 mi Calm Calm - 0.01 in   Mostly Cloudy
8:16 AM 69.8 °F - 66.2 °F 88% 30.04 in 2.5 mi Calm Calm - 0.01 in   Scattered Clouds
8:23 AM 69.8 °F - 68.0 °F 94% 30.04 in 3.0 mi Calm Calm - 0.01 in   Partly Cloudy
8:53 AM 71.6 °F - 68.0 °F 88% 30.05 in 5.0 mi NE 3.5 mph - N/A   Clear
9:53 AM 75.9 °F - 69.1 °F 79% 30.05 in 10.0 mi NNE 3.5 mph - N/A   Clear
10:53 AM 80.1 °F 82.7 °F 68.0 °F 67% 30.05 in 10.0 mi NNW 6.9 mph - N/A   Mostly Cloudy
11:08 AM 80.6 °F 82.7 °F 66.2 °F 61% 30.05 in 10.0 mi NE 6.9 mph - N/A   Scattered Clouds
11:53 AM 82.9 °F 85.4 °F 66.9 °F 58% 30.04 in 10.0 mi North 6.9 mph - N/A   Scattered Clouds
12:53 PM 81.0 °F 83.8 °F 68.0 °F 65% 30.03 in 10.0 mi North 10.4 mph 18.4 mph N/A   Partly Cloudy
1:53 PM 80.1 °F 82.1 °F 66.0 °F 62% 30.00 in 10.0 mi North 10.4 mph - N/A   Clear
2:53 PM 81.0 °F 83.0 °F 66.0 °F 60% 29.98 in 10.0 mi North 8.1 mph - N/A   Clear
3:53 PM 82.0 °F 84.1 °F 66.0 °F 58% 29.98 in 10.0 mi North 9.2 mph - N/A   Clear
4:53 PM 80.1 °F 81.9 °F 64.9 °F 60% 29.97 in 10.0 mi North 9.2 mph - N/A   Clear
5:53 PM 78.8 °F - 64.4 °F 61% 29.97 in 10.0 mi North 10.4 mph - N/A   Clear
6:53 PM 73.0 °F - 63.0 °F 71% 29.99 in 10.0 mi NNE 8.1 mph - N/A   Clear
7:53 PM 69.1 °F - 60.1 °F 73% 30.01 in 10.0 mi NNE 13.8 mph - N/A   Clear
8:53 PM 64.0 °F - 57.0 °F 78% 30.04 in 10.0 mi North 16.1 mph - N/A   Clear
9:53 PM 60.1 °F - 55.0 °F 83% 30.06 in 10.0 mi North 13.8 mph 19.6 mph N/A   Clear
10:12 PM 60.8 °F - 55.4 °F 82% 30.06 in 10.0 mi North 12.7 mph - N/A   Mostly Cloudy
10:53 PM 60.1 °F - 54.0 °F 80% 30.06 in 10.0 mi NNE 16.1 mph 21.9 mph N/A   Overcast
11:53 PM 57.9 °F - 53.1 °F 84% 30.07 in 10.0 mi NNE 15.0 mph - N/A   Overcast